Statesville, NC

5:51 AM EDT on July 27, 2017 (GMT -0400)
Statesville Municipal

Weather History for KSVH - May, 2014

Change the Weather History Date:

Tuesday, May 6, 2014

  Actual Average (KHKY) Record (KHKY)
Temperature  
Mean Temperature 70 °F -  
Max Temperature 85 °F 76 °F 92 °F (1952)
Min Temperature 55 °F 51 °F 39 °F (1973)
Cooling Degree Days 4    
Growing Degree Days 20 (Base 50)    
Moisture  
Dew Point 53 °F    
Average Humidity 54    
Maximum Humidity 86    
Minimum Humidity 32    
Precipitation  
Precipitation 0.00 in - - ()
Sea Level Pressure  
Sea Level Pressure 29.92 in    
Wind  
Wind Speed 5 mph (SSW)    
Max Wind Speed 9 mph    
Max Gust Speed 16 mph    
Visibility 10 miles    
Events      
Averages and records for this station are not official NWS values.
T = Trace of Precipitation, MM = Missing Value Source: NWS Daily Summary

Daily Weather History Graph

Daily Weather History Graph

Search for Another Location

Airport or City:

Trip Planner

Search our weather history database for the weather conditions in past years. The results will help you decide how hot, cold, wet, or windy it might be!

Date:

Astronomy

May. 06, 2014 Rise Set
Actual Time 6:26 AM EDT 8:14 PM EDT
Civil Twilight 5:58 AM EDT 8:42 PM EDT
Nautical Twilight 5:25 AM EDT 9:16 PM EDT
Astronomical Twilight 4:49 AM EDT 9:52 PM EDT
Moon 12:38 PM EDT (5/6) 1:35 AM EDT (5/6)
Length of Visible Light 14h 43m
Length of Day
13h 48m
Waxing Crescent, 46% of the Moon is Illuminated
May 6
Waxing Crescent
May 6
First Quarter
May 14
Full
May 21
Last Quarter
May 28
New

Hourly Weather History & Observations

Time (EDT) Temp. Heat Index Dew Point Humidity Pressure Visibility Wind Dir Wind Speed Gust Speed Precip Events Conditions
12:15 AM 62.2 °F - 54.9 °F 77% 29.88 in 10.0 mi NNE 8.1 mph - N/A   Clear
12:35 AM 61.0 °F - 54.7 °F 80% 29.89 in 10.0 mi North 8.1 mph - N/A   Clear
1:15 AM 59.0 °F - 53.1 °F 81% 29.89 in 10.0 mi NE 5.8 mph - N/A   Clear
1:35 AM 58.3 °F - 52.7 °F 82% 29.89 in 10.0 mi NNE 8.1 mph - N/A   Clear
1:55 AM 57.6 °F - 52.2 °F 82% 29.89 in 10.0 mi NNE 5.8 mph - N/A   Clear
2:15 AM 57.2 °F - 51.8 °F 82% 29.89 in 10.0 mi NNE 6.9 mph - N/A   Clear
2:35 AM 56.7 °F - 51.1 °F 82% 29.89 in 10.0 mi NNE 3.5 mph - N/A   Clear
2:55 AM 55.9 °F - 50.9 °F 83% 29.89 in 10.0 mi NNE 4.6 mph - N/A   Clear
3:15 AM 55.8 °F - 50.9 °F 84% 29.89 in 10.0 mi North 4.6 mph - N/A   Clear
7:55 AM 56.1 °F - 52.0 °F 86% 29.94 in 10.0 mi Calm Calm - N/A   Clear
8:15 AM 57.4 °F - 50.9 °F 79% 29.95 in 10.0 mi Calm Calm - N/A   Clear
8:35 AM 58.3 °F - 52.7 °F 82% 29.95 in 10.0 mi Calm Calm - N/A   Clear
8:55 AM 59.0 °F - 52.7 °F 80% 29.95 in 10.0 mi Calm Calm - N/A   Clear
9:15 AM 59.9 °F - 52.9 °F 78% 29.96 in 10.0 mi Calm Calm - N/A   Clear
9:55 AM 63.0 °F - 53.4 °F 71% 29.96 in 10.0 mi Calm Calm - N/A   Clear
10:15 AM 66.0 °F - 54.7 °F 67% 29.96 in 10.0 mi Calm Calm - N/A   Clear
10:35 AM 68.0 °F - 55.4 °F 64% 29.96 in 10.0 mi Calm Calm - N/A   Clear
10:55 AM 70.9 °F - 56.1 °F 59% 29.95 in 10.0 mi SSW 3.5 mph - N/A   Clear
11:15 AM 73.4 °F - 56.3 °F 55% 29.95 in 10.0 mi WSW 3.5 mph - N/A   Clear
11:35 AM 75.6 °F - 57.7 °F 54% 29.96 in 10.0 mi SW 6.9 mph - N/A   Clear
11:55 AM 78.1 °F - 57.9 °F 50% 29.95 in 10.0 mi Calm Calm - N/A   Clear
12:15 PM 79.0 °F - 52.3 °F 39% 29.95 in 10.0 mi West 4.6 mph - N/A   Clear
12:35 PM 81.0 °F - 51.4 °F 36% 29.94 in 10.0 mi West 8.1 mph - N/A   Clear
12:55 PM 81.0 °F - 50.9 °F 35% 29.94 in 10.0 mi West 9.2 mph - N/A   Clear
1:15 PM 81.1 °F - 50.4 °F 34% 29.93 in 10.0 mi SSE 3.5 mph - N/A   Clear
1:35 PM 82.9 °F - 52.3 °F 35% 29.93 in 10.0 mi SW 3.5 mph - N/A   Clear
1:55 PM 83.1 °F - 52.2 °F 34% 29.92 in 10.0 mi WSW 4.6 mph - N/A   Clear
2:15 PM 84.6 °F - 51.8 °F 32% 29.91 in 10.0 mi WSW 9.2 mph 16.1 mph N/A   Clear
2:35 PM 84.7 °F - 52.7 °F 33% 29.91 in 10.0 mi SSW 8.1 mph - N/A   Clear
2:55 PM 84.4 °F 83.1 °F 54.5 °F 36% 29.91 in 10.0 mi South 6.9 mph - N/A   Clear
3:15 PM 84.4 °F 83.2 °F 55.6 °F 37% 29.90 in 10.0 mi SSE 8.1 mph - N/A   Clear
3:35 PM 84.2 °F 82.8 °F 54.0 °F 35% 29.90 in 10.0 mi South 6.9 mph - N/A   Clear
4:15 PM 84.7 °F 83.1 °F 53.6 °F 34% 29.89 in 10.0 mi South 9.2 mph 16.1 mph N/A   Clear
4:35 PM 82.8 °F - 52.5 °F 35% 29.89 in 10.0 mi SW 8.1 mph - N/A   Clear
4:55 PM 83.7 °F 82.4 °F 54.0 °F 36% 29.88 in 10.0 mi SSW 4.6 mph - N/A   Clear
5:15 PM 83.8 °F 82.4 °F 53.6 °F 35% 29.88 in 10.0 mi SSE 8.1 mph - N/A   Clear
5:35 PM 84.0 °F - 52.5 °F 34% 29.88 in 10.0 mi SSE 6.9 mph - N/A   Clear
5:55 PM 84.0 °F 82.9 °F 54.9 °F 37% 29.88 in 10.0 mi SSE 5.8 mph - N/A   Clear
6:15 PM 83.3 °F 82.2 °F 54.3 °F 37% 29.88 in 10.0 mi SE 6.9 mph - N/A   Clear
6:35 PM 82.8 °F 81.9 °F 54.7 °F 38% 29.88 in 10.0 mi South 4.6 mph - N/A   Clear
6:55 PM 82.4 °F 81.8 °F 55.8 °F 40% 29.89 in 10.0 mi South 3.5 mph - N/A   Clear
7:15 PM 81.7 °F 81.3 °F 55.8 °F 41% 29.89 in 10.0 mi South 3.5 mph - N/A   Clear
7:35 PM 80.1 °F 80.1 °F 55.2 °F 42% 29.90 in 10.0 mi South 3.5 mph - N/A   Clear
7:55 PM 78.6 °F - 54.0 °F 42% 29.90 in 10.0 mi South 3.5 mph - N/A   Clear
8:15 PM 77.5 °F - 52.9 °F 42% 29.91 in 10.0 mi Calm Calm - N/A   Clear
8:35 PM 76.6 °F - 52.9 °F 43% 29.92 in 10.0 mi Calm Calm - N/A   Clear
8:55 PM 75.6 °F - 53.1 °F 45% 29.92 in 10.0 mi Calm Calm - N/A   Clear
9:15 PM 74.3 °F - 53.4 °F 48% 29.93 in 10.0 mi Calm Calm - N/A   Clear
9:35 PM 73.4 °F - 53.6 °F 50% 29.93 in 10.0 mi Calm Calm - N/A   Clear
9:55 PM 71.2 °F - 53.6 °F 54% 29.94 in 10.0 mi South 3.5 mph - N/A   Clear
10:15 PM 71.2 °F - 53.6 °F 54% 29.94 in 10.0 mi SSW 3.5 mph - N/A   Clear
10:35 PM 71.6 °F - 53.2 °F 52% 29.95 in 10.0 mi SSW 3.5 mph - N/A   Clear
10:55 PM 70.2 °F - 53.6 °F 56% 29.95 in 10.0 mi Calm Calm - N/A   Clear
11:15 PM 68.2 °F - 53.8 °F 60% 29.95 in 10.0 mi Calm Calm - N/A   Clear
11:55 PM 65.7 °F - 53.6 °F 65% 29.96 in 10.0 mi Calm Calm - N/A   Clear